Heizelement Heißluft 1200W 220V ET2080220621

Heizelement Heißluft 1200W 220V  ET2080220621 Heizelement Heißluft 1200W 220V  ET2080220621 Heizelement Heißluft 1200W 220V  ET2080220621 Heizelement Heißluft 1200W 220V  ET2080220621 Heizelement Heißluft 1200W 220V  ET2080220621
  • _
  • ArtikelNr.: 2080220621
  • Lieferstatus: sofort lieferbar
  • Lieferzeit (je n. gew. Versandart): 1 - 3 Werktage
  • Unser Preis : 29,95 €
  • inkl. 19% USt., zzgl. Versand
Wird geladen ...

einsetzbar z.B. bei

:
  • AEG, Privileg, Electrolux
Zubehör / Einzelteil /
Sortimentsbestandteile
:

Beschreibung

Heizelement Heißluft 1200W 220V ET2080220621

Backofenheizung für die Heißluft, Tropfenform, mit schmalem Flansch

mögliche Aufschriften/Aufdrucke:

Irca 5063 130R 1200W 220V

-Außen-Ø: 193 mm -Innen-Ø: 180 mm -Anschlusstiefe: 65 mm -Flansch: Breite x Höhe: 45x17 mm -Flansch: Befestigungsabstand (Lochabstand): 37 mm -Flansch: Anschlussabstand: 12 mm -Werte: 1200 Watt, 220 Volt

passend u.a. wie Electrolux-Konzern/AEG.. 899661912880/5. Passende Flanschdichtung: Best.-Nr. 802709.

Passt u.a. zu folgenden E-Nummern / Produkten

  • COMPETENCEF542VDASB 61115000300 19830101
  • COMPETENCEF542DABC 61115000500 19840101
  • COMPETENCEF541SW 61115100800 19830101
  • COMPETENCEF541SSB 61115100900 19830101
  • COMPETENCEF542VSB 61115200300 19830101
  • COMPETENCEF542BC 61115200400 19840101
  • CARAT542 61115200500 19840101
  • FW640LBC 61125000800 19840101
  • COMPETENCEF642SB 61125001000 19830101
  • FV640SB 61125001100 19830101
  • FW640DASB 61125001900 19830101
  • COMPETENCEF742KAUFHOF 61125002000 19830101
  • FV640BC 61125002100 19840101
  • COMPETENCEF642W 61125002300 19840101
  • CARAT642 61125002400 19840101
  • COMPETENCEF642BC 61125002600 19840101
  • COMPETENCEF642BL 61125002800 19850101
  • COMPETENCEF642RT 61125002900 19850101
  • COMPETENCEE640DA 61141602700 19830101
  • EW64KL 61141603200 19840101
  • EW64B 61141603300 19820101
  • EW640Z 61141603600 19820101
  • COMPETENCEE640 61141603700 19820101
  • COMPETENCEE64K 61141603800 19830101
  • COMPETENCEE640W 61141604100 19820101
  • COMPETENCEE640 61141604300 19830101
  • COMPETENCEE640W 61141604400 19830101
  • EW640Z 61141604500 19820101
  • EW64BS 61141604600 19830101
  • EW64BD 61141604700 19830101
  • RE640TABAC 61141605200 19830101
  • RE640DATABAC 61141605300 19830101
  • EW64LD 61141605400 19830101
  • EW64LS 61141605500 19830101
  • COMPETENCEE64S 61141605800 19840101
  • COMPETENCEE64D 61141605900 19840101
  • COMPETENCEE640LFVSB 61141606400 19850101
  • COMPETENCEE64KLFVARIO 61141606500 19850101
  • EW640VSB 61141606800 19850101
  • U640SB 61141700700 19830101
  • U640W 61141700900 19840101
  • EC640SB 61141800200 19840101
  • EC640LGSB 61141800300 19840101
  • U540SSB 61145800400 19830101
  • U540SB 61145900300 19830101
  • COMPETENCEB88LFVVARIO 61156300000 19850101
  • COMPETENCEB88LD 61156300600 19830101
  • COMPETENCEB88LS 61156300800 19830101
  • COMPETENCEB88LW 61156300900 19830101
  • COMPETENCEB60LD 61156400400 19830101
  • COMPETENCEB60LW 61156400500 19830101
  • COMPETENCEB60LS 61156400700 19830101
  • COMPETENCEB60LVARIO 61156400800 19840101
  • COMPETENCEB60LFVVARIO 61156401000 19850101
  • ET500W 61115110000 19830101
  • ET520 61115210000 19830101
  • ET600 61125020000 19830101
  • COMPETENCEBW600DGSB 61156492100 19990401P
  • EEB60UL EEB60UL
  • EEH60U EEH60U
  • EEHS60U EEHS60U
  • EEHS60UBW EEHS60UBW
  • EEHS61U EEHS61U
  • EEHSW60U EEHSW60U
  • EEHWS61U EEHWS61U
  • EH50U EH50U
  • EH50UF EH50UF
  • EHK50U EHK50U
  • EHK60UB EHK60UB
  • EIH60UAB EIH60UAB
  • EIH60UB EIH60UB
  • EIH60ULB EIH60ULB
  • EIHW60UB EIHW60UB
  • COMPETENCEF542VDASB 61115000300 19830101
  • COMPETENCEF542DABC 61115000500 19840101
  • COMPETENCEF541SW 61115100800 19830101
  • COMPETENCEF541SSB 61115100900 19830101
  • COMPETENCEF542VSB 61115200300 19830101
  • COMPETENCEF542BC 61115200400 19840101
  • CARAT542 61115200500 19840101
  • FW640LBC 61125000800 19840101
  • COMPETENCEF642SB 61125001000 19830101
  • FV640SB 61125001100 19830101
  • FW640DASB 61125001900 19830101
  • COMPETENCEF742KAUFHOF 61125002000 19830101
  • FV640BC 61125002100 19840101
  • COMPETENCEF642W 61125002300 19840101
  • CARAT642 61125002400 19840101
  • COMPETENCEF642BC 61125002600 19840101
  • COMPETENCEF642BL 61125002800 19850101
  • COMPETENCEF642RT 61125002900 19850101
  • COMPETENCEE640DA 61141602700 19830101
  • EW64KL 61141603200 19840101
  • EW64B 61141603300 19820101
  • EW640Z 61141603600 19820101
  • COMPETENCEE640 61141603700 19820101
  • COMPETENCEE64K 61141603800 19830101
  • COMPETENCEE640W 61141604100 19820101
  • COMPETENCEE640 61141604300 19830101
  • COMPETENCEE640W 61141604400 19830101
  • EW640Z 61141604500 19820101
  • EW64BS 61141604600 19830101
  • EW64BD 61141604700 19830101
  • RE640TABAC 61141605200 19830101
  • RE640DATABAC 61141605300 19830101
  • EW64LD 61141605400 19830101
  • EW64LS 61141605500 19830101
  • COMPETENCEE64S 61141605800 19840101
  • COMPETENCEE64D 61141605900 19840101
  • COMPETENCEE640LFVSB 61141606400 19850101
  • COMPETENCEE64KLFVARIO 61141606500 19850101
  • EW640VSB 61141606800 19850101
  • U640SB 61141700700 19830101
  • U640W 61141700900 19840101
  • EC640SB 61141800200 19840101
  • EC640LGSB 61141800300 19840101
  • U540SSB 61145800400 19830101
  • U540SB 61145900300 19830101
  • COMPETENCEB88LFVVARIO 61156300000 19850101
  • COMPETENCEB88LD 61156300600 19830101
  • COMPETENCEB88LS 61156300800 19830101
  • COMPETENCEB88LW 61156300900 19830101
  • COMPETENCEB60LD 61156400400 19830101
  • COMPETENCEB60LW 61156400500 19830101
  • COMPETENCEB60LS 61156400700 19830101
  • COMPETENCEB60LVARIO 61156400800 19840101
  • COMPETENCEB60LFVVARIO 61156401000 19850101
  • ET500W 61115110000 19830101
  • ET520 61115210000 19830101
  • ET600 61125020000 19830101
  • COMPETENCEBW600DGSB 61156492100 19990401P
  • EEB60UL EEB60UL
  • EEH60U EEH60U
  • EEHS60U EEHS60U
  • EEHS60UBW EEHS60UBW
  • EEHS61U EEHS61U
  • EEHSW60U EEHSW60U
  • EEHWS61U EEHWS61U
  • EH50U EH50U
  • EH50UF EH50UF
  • EHK50U EHK50U
  • EHK60UB EHK60UB
  • EIH60UAB EIH60UAB
  • EIH60UB EIH60UB
  • EIH60ULB EIH60ULB
  • EIHW60UB EIHW60UB
  • Ihr Gerät ist nicht in der Liste?
    Unsere Mitarbeiter durchsuchen gerne kostenfrei und unverbindlich unsere umfassende Ersatzteildatenbank, die wir Ihnen aus technischen Gründen online leider nicht in allen Fällen vollständig bereitstellen können.
    Kostenlose Ersatzteilanfrage stellen

Herstellernummern

unter anderem passend wie bzw. einsetzbar wie:

  • 20.26581.000 = 2026581000 (OT 899661912880/5)
  • 89 9661 91 13-77/3 = 899661911377/3 = 8996619113773 = 899661911377 = 661911377 (1200W) -> 899661912880/5
  • 89 9661 91 28-80/5 = 899661912880/5 = 8996619128805 = 899661912880 = 661912880 (Heizung 230V 1200W)
  • 802621 = eu802621
  • 5063130R =
  • 507 0598RL6 = 5070598RL6
  • 507893 = K507893
  • 481225928101 (Rohrheizkoerper neue Ausf.hr)
  • 8996619128805

    einsetzbar u. a. ggfs. bei Geräten folgender Marken/Hersteller:

    AEG-Electrolux Gruppe, Küppersbusch,

    folgende Synonyme dienen ausschließlich der Datensuche und geben keine direkte Auskunft über das aktuelle Ersatzteil:

    1200 Watt, 1200 W, 1200Watt, 1200W, 1,2 kW, 1,2kW, 220Volt, 220V, 220 Volt, 220 V, Backofenheißluftheizung, Backofenheissluftheizung, Backofenheißluftheizungen, Backofenheissluftheizungen, Heißluftheizung, Heißluftheizungen, Heissluftheizung, Heissluftheizungen, Backofenheizring, Backofenheizringe, Heizring, Heizringe, Backofenheizstab, Backofenheizstäbe, Heizstab, Heizstäbe, Backofenheizung, Backofenheizungen, Heizung, Heizungen, Backofen-Ringheizelement, Backofenringheizung, Backofenringheizung, Backofenringheizungen, Backofenringheizungen, Ringheizelement, Ringheizelemente, Ringheizung, Ringheizungen, Ringheizkörper, Rundheizung, Rundheizungen, Rundheizelement, Rundheizelemente, Rundheizkörper, Heißluftheizelement, Heissluftheizelement, Heißluftheizung, Heissluftheizung, Heißluftheizkörper, Heissluftheizkörper, Heißluftheizelemente, Heissluftheizelemente, Heißluftheizungen, Heissluftheizungen, Heißluftheizkörper, Heissluftheizkörper, Heißluft, Heissluft, Heizelement, Heizelemente, Heißluftherdheizung, Heissluftherdheizung, Heißluftherdheizungen, Heissluftherdheizungen, Rohrheizelement, Rohrheizung, Rohrheizkörper, Rohrheizelemente, Rohrheizungen, Rohrheizkörper, Rohrheizung, Rohrheizelement, Rohrheizungen, Rohrheizelemente, Heizkörper, Rohrheizung, Rohrheizelement, Rohrheizkörper, Rohrheizungen, Rohrheizelemente, Rundheizkörper, Rundheizkoerper, Rinheizkörper, Heizkörper, Rundheizung, Rundheizungen, Ringheizung, Ringheizungen, Umluftheizelement, Umluftheizelemente, Umluftheizkörper, Umluftheizung, Umluftheizungen, xx, mittig, mitte, mittiger, mittigliegender, mittigliegendes, mittigliegender, mittigsitzend, mittigsitzender, mittigsitzendes, yy, AlternativTeil, Alternativ, Alternative, Alternativartikel, AT!, preisgünstige Alternative, preisgünstig, Alternativersatzteil, Alternativersatzteile, Alternativteile, Alternativen, Alternativer, Alternatives, zz, Backofen, Backöfen, Backraum, Herd, Herde, Ofen, oven, ovens, Stove, Elektroherd, Elektroherde, E-Herd, E-Herde, EHerd, EHerde, backen, kochen, zz, Heißluftherd, Heißluftherde, Heißluftbackofen, Heißluftbacköfen, Heissluftherd, Heissluftherde, Heissluftbackofen, Heissluftbacköfen, Heißluft, Heissluft, Herd, Herde, Elektroherd, Elektroherde, Backofen, Backöfen, backen, Umluftherd, Umluftherde, Umluftbackofen, Umluftbacköfen, Umluft,

    Frage zum Produkt?

    Frage zum Produkt?
    Kontaktdaten

    Kunden kauften dazu folgende Produkte

    Mitglied im Händlerbund